TimeCST,TemperatureF,Dew PointF,Humidity,Sea Level PressureIn,VisibilityMPH,Wind Direction,Wind SpeedMPH,Gust SpeedMPH,PrecipitationIn,Events,Conditions,WindDirDegrees,DateUTC
12:54 AM,37.9,36.0,93,30.12,9.0,Calm,Calm,-,N/A,,Clear,0,2012-11-20 06:54:00
1:54 AM,42.1,39.0,89,30.11,10.0,WSW,5.8,-,N/A,,Clear,250,2012-11-20 07:54:00
2:54 AM,44.1,39.9,85,30.10,10.0,WSW,4.6,-,N/A,,Clear,240,2012-11-20 08:54:00
3:54 AM,41.0,37.9,89,30.09,10.0,Calm,Calm,-,N/A,,Clear,0,2012-11-20 09:54:00
4:30 AM,39.2,37.4,93,30.08,1.8,Calm,Calm,-,N/A,,Clear,0,2012-11-20 10:30:00
4:42 AM,37.4,35.6,93,30.08,3.0,Calm,Calm,-,N/A,,Clear,0,2012-11-20 10:42:00
4:47 AM,37.4,35.6,93,30.08,1.5,Calm,Calm,-,N/A,,Clear,0,2012-11-20 10:47:00
4:54 AM,36.0,36.0,100,30.09,0.5,Calm,Calm,-,N/A,Fog,Fog,0,2012-11-20 10:54:00
5:12 AM,35.6,33.8,93,30.09,2.5,Calm,Calm,-,N/A,,Clear,0,2012-11-20 11:12:00
5:26 AM,37.4,35.6,93,30.08,0.8,Calm,Calm,-,N/A,,Clear,0,2012-11-20 11:26:00
5:41 AM,35.6,35.6,100,30.08,8.0,Calm,Calm,-,N/A,,Clear,0,2012-11-20 11:41:00
5:54 AM,35.6,35.6,100,30.08,8.0,Calm,Calm,-,N/A,,Clear,0,2012-11-20 11:54:00
6:12 AM,35.6,33.8,93,30.08,8.0,Calm,Calm,-,N/A,,Mostly Cloudy,0,2012-11-20 12:12:00
6:51 AM,35.6,33.8,93,30.10,8.0,Calm,Calm,-,N/A,,Scattered Clouds,0,2012-11-20 12:51:00
6:54 AM,34.0,33.1,96,30.11,8.0,Calm,Calm,-,N/A,,Scattered Clouds,0,2012-11-20 12:54:00
7:21 AM,35.6,35.6,100,30.10,8.0,Calm,Calm,-,N/A,,Scattered Clouds,0,2012-11-20 13:21:00
7:54 AM,39.9,39.0,97,30.12,10.0,Calm,Calm,-,N/A,,Mostly Cloudy,0,2012-11-20 13:54:00
8:54 AM,46.9,44.1,90,30.13,10.0,Calm,Calm,-,N/A,,Mostly Cloudy,0,2012-11-20 14:54:00
9:54 AM,50.0,45.0,83,30.13,10.0,WSW,4.6,-,N/A,,Scattered Clouds,240,2012-11-20 15:54:00
10:54 AM,54.0,45.0,72,30.13,10.0,Calm,Calm,-,N/A,,Partly Cloudy,0,2012-11-20 16:54:00
11:54 AM,59.0,45.0,60,30.10,10.0,WSW,3.5,-,N/A,,Clear,250,2012-11-20 17:54:00
12:54 PM,62.6,44.6,52,30.09,10.0,NNW,4.6,-,N/A,,Clear,330,2012-11-20 18:54:00
1:54 PM,62.1,43.0,50,30.09,10.0,NNW,8.1,-,N/A,,Clear,330,2012-11-20 19:54:00
2:54 PM,62.1,45.0,53,30.09,10.0,NNW,10.4,-,N/A,,Clear,340,2012-11-20 20:54:00
3:54 PM,59.0,46.0,62,30.12,10.0,NW,6.9,-,N/A,,Clear,320,2012-11-20 21:54:00
4:54 PM,53.1,45.0,74,30.14,10.0,NW,4.6,-,N/A,,Clear,310,2012-11-20 22:54:00
5:54 PM,50.0,44.1,80,30.17,7.0,Calm,Calm,-,N/A,,Clear,0,2012-11-20 23:54:00
6:54 PM,48.0,44.1,86,30.18,10.0,Calm,Calm,-,N/A,,Clear,0,2012-11-21 00:54:00
7:54 PM,45.0,42.1,90,30.19,4.0,South,3.5,-,N/A,,Clear,180,2012-11-21 01:54:00
8:54 PM,43.0,41.0,93,30.20,6.0,Calm,Calm,-,N/A,,Haze,0,2012-11-21 02:54:00
9:54 PM,41.0,39.0,93,30.21,6.0,Calm,Calm,-,N/A,,Clear,0,2012-11-21 03:54:00
10:54 PM,37.9,36.0,93,30.22,6.0,Calm,Calm,-,N/A,,Clear,0,2012-11-21 04:54:00
11:03 PM,39.2,37.4,93,30.21,2.5,Calm,Calm,-,N/A,,Clear,0,2012-11-21 05:03:00
11:21 PM,37.4,35.6,93,30.21,3.0,Calm,Calm,-,N/A,,Mostly Cloudy,0,2012-11-21 05:21:00
11:37 PM,37.4,35.6,93,30.21,2.5,Calm,Calm,-,N/A,,Mostly Cloudy,0,2012-11-21 05:37:00
11:49 PM,39.2,37.4,93,30.21,2.5,Calm,Calm,-,N/A,,Scattered Clouds,0,2012-11-21 05:49:00
11:54 PM,37.9,36.0,93,30.22,2.0,Calm,Calm,-,N/A,,Partly Cloudy,0,2012-11-21 05:54:00
11:59 PM,37.4,37.4,100,30.21,1.8,Calm,Calm,-,N/A,,Partly Cloudy,0,2012-11-21 05:59:00